Flag for Jamaica Weather past 2 weeks in Montego Bay, Jamaica

Now
86 °F

Passing clouds.


Feels Like: 97 °F
Forecast: 81 / 89 °F
Wind: 16 mph from Northeast

Location: Montego Bay / Sangster

Current Time: Jul 7, 2015 at 1:04:28 PM

Latest Report: Jul 7, 2015 at 12:00 PM


Visibility: N/A

Pressure: 30.01 "Hg

Humidity: 75%

Dew point: 77 °F

Location of Montego BayLocation

Historic Weather in Montego Bay — Graph

°F

Montego Bay temperature yesterday

Maximum temperature yesterday: 88 °F (at 10:00 AM)
Minimum temperature yesterday: 79 °F (at 6:00 AM)
Average temperature yesterday: 84 °F

Past Weeks' High & Low Weather Summary

 TemperatureHumidityPressure
High93 °F (Jun 28, 12:00 PM)89% (Jun 23, 6:00 AM)30.07 "Hg (Jun 23, 6:00 AM)
Low77 °F (Jun 23, 4:00 AM)49% (Jun 29, 2:00 PM)29.86 "Hg (Jul 3, 4:00 PM)
Average84 °F70%29.99 "Hg
* Reported Jun 22 11:00 AM — Jul 7 11:00 AM, Montego Bay, Weather by CustomWeather, © 2015

Note: Actual official high and low records may vary slightly from our data, if they occured in-between our weather recording intervals... More about our weather records

Advertising

Montego Bay weather history for previous 24 hours

 ConditionsComfort  
Time TempWeatherWind HumidityBarometerVisibility
11:00 AM
Tue, Jul 7
86 °FPassing clouds.13 mph70%30.04 "HgN/A
10:00 AM86 °FPassing clouds.13 mph66%30.01 "HgN/A
9:00 AM84 °FPassing clouds.10 mph74%30.01 "HgN/A
8:00 AM82 °FPassing clouds.7 mph74%30.01 "HgN/A
7:00 AM82 °FPassing clouds.1 mph74%30.01 "HgN/A
6:00 AM79 °FPassing clouds.2 mph84%29.98 "HgN/A
5:00 AM79 °FPassing clouds.3 mph84%29.98 "HgN/A
4:00 AM81 °FPassing clouds.3 mph79%29.95 "HgN/A
3:00 AM81 °FPassing clouds.8 mph84%29.98 "HgN/A
2:00 AM81 °FPassing clouds.6 mph84%29.98 "HgN/A
1:00 AM82 °FThundershowers. Passing clouds.9 mph84%29.98 "HgN/A
12:00 AM82 °FPassing clouds.12 mph79%30.01 "HgN/A
11:00 PM
Mon, Jul 6
82 °FPassing clouds.9 mph84%30.01 "HgN/A
10:00 PM81 °FPassing clouds.8 mph89%30.01 "HgN/A
9:00 PM82 °FPassing clouds.7 mph84%30.01 "HgN/A
8:00 PM82 °FPassing clouds.7 mph84%29.98 "HgN/A
7:00 PM82 °FPassing clouds.9 mph89%29.98 "HgN/A
6:00 PM86 °FPassing clouds.13 mph75%29.98 "HgN/A
5:00 PM88 °FPassing clouds.13 mph66%29.98 "HgN/A
4:00 PM88 °FPassing clouds.16 mph70%29.98 "HgN/A
3:00 PM88 °FPassing clouds.17 mph70%29.98 "HgN/A
2:00 PM88 °FPassing clouds.18 mph70%29.98 "HgN/A
1:00 PM88 °FPassing clouds.17 mph70%30.01 "HgN/A
Weather by CustomWeather, © 2015

See weather overviewHow to use our weather pages